Regional Weather Roundup
Issued by NWS Cleveland, OH

Current Version | Previous Version | Text Only | Print | Product List | Glossary On
Versions: 1 2 3 4 5 6 7 8 9 10 11 12 13 14 15 16 17 18 19 20 21 22 23 24 25 26 27 28 29 30 31 32 33 34 35 36 37 38 39 40 41 42 43 44 45 46 47 48 49 50
000 ASUS41 KCLE 222210 RWRCLE OHIO REGIONAL WEATHER ROUNDUP NATIONAL WEATHER SERVICE CLEVELAND, OH 600 PM EDT MON SEP 22 2014 NOTE: "FAIR" INDICATES FEW OR NO CLOUDS BELOW 12,000 FEET WITH NO SIGNIFICANT WEATHER AND/OR OBSTRUCTIONS TO VISIBILITY. OHZ001>008-015>018-024>027-034-035-043-044-222300- NORTHWEST OHIO CITY SKY/WX TMP DP RH WIND PRES REMARKS DEFIANCE SUNNY N/A N/A N/A NW7 30.21R FINDLAY SUNNY 65 40 39 N6 30.19S TOLEDO EXPRESS SUNNY 64 39 39 N7 30.20R TOLEDO EXEC SUNNY 64 40 41 NW7 30.20S LIMA SUNNY 63 41 44 NW7 30.21S $$ OHZ009>014-019>023-028>033-038-089-222300- NORTHEAST OHIO CITY SKY/WX TMP DP RH WIND PRES REMARKS CLE-HOPKINS MOSUNNY 56 41 57 W8 30.23S CLE-LAKEFRONT MOSUNNY 55 42 61 W7 30.20F CUY CO. ARPT PTSUNNY 55 45 67 W13 30.21F LORAIN-ELYRIA SUNNY 58 43 57 NW7 30.22S ASHTABULA CLOUDY 52 42 69 W10 30.21R AKRON-CANTON MOSUNNY 58 40 51 NW8 30.20S WOOSTER PTSUNNY 59 41 51 NW3 30.21S MANSFIELD SUNNY 60 39 45 NW7 30.21R YOUNGSTOWN CLOUDY 52 42 69 NW8 30.20R $$ OHZ042-051>053-060>062-070>072-077>081-222300- SOUTHWEST OHIO CITY SKY/WX TMP DP RH WIND PRES REMARKS CINC-COVINGTON SUNNY 65 40 39 N8 30.22R CINC-LUNKEN SUNNY 65 41 41 N9 30.22S HAMILTON SUNNY 66 41 40 CALM 30.22S DAYTON SUNNY 64 40 41 VRB6 30.22F WRIGHT-PAT AFB SUNNY 64 40 41 N7 30.21F DAYTON GENERAL SUNNY 64 40 41 W7 30.21S WILMINGTON SUNNY 64 40 41 NW13 30.21S $$ OHZ036-037-039>041-045>050-054>059-063>069-073>076-082>088-222300- CENTRAL AND SOUTHEAST OHIO CITY SKY/WX TMP DP RH WIND PRES REMARKS COLUMBUS SUNNY 64 37 36 N6 30.20S OSU AIRPORT SUNNY 62 38 40 N3 30.20F BOLTON FIELD SUNNY 61 41 48 NW8 30.21S RICKENBACK AFB SUNNY 62 39 41 CALM 30.20S NEWARK SUNNY 61 40 45 W7 30.20S MARION SUNNY 62 38 40 NW5 30.20S LANCASTER SUNNY 63 39 41 W6 30.20F ZANESVILLE SUNNY 61 40 45 NW8 30.20S NEW PHILLY MOSUNNY 56 42 59 W6 30.22R $$

USA.gov is the U.S. government's official web portal to all federal, state and local government web resources and services.